Regional Weather Roundup
Issued by NWS Upton, NY

Home | Current Version | Previous Version | Text Only | Print | Product List | Glossary On
Versions: 1 2 3 4 5 6 7 8 9 10 11 12 13 14 15 16 17 18 19 20 21 22 23 24 25 26 27 28 29 30 31 32 33 34 35 36 37 38 39 40 41 42 43 44 45 46 47 48
000
ASUS41 KOKX 021105
RWROKX

REGIONAL WEATHER ROUNDUP
NATIONAL WEATHER SERVICE NEW YORK NY
700 AM EDT THU OCT 02 2014

NOTE: "FAIR" INDICATES FEW OR NO CLOUDS BELOW 12,000 FEET WITH NO
SIGNIFICANT WEATHER AND/OR OBSTRUCTIONS TO VISIBILITY.

NYZ071-072-176-178-NJZ106-104-021200-
NEW YORK CITY METRO AREA


CITY           SKY/WX    TMP DP  RH WIND       PRES   REMARKS
CENTRAL PARK   CLOUDY    61  53  75 NE8       30.14R
LAGUARDIA APRT CLOUDY    61  54  77 NE13      30.11R
KENNEDY INTL   CLOUDY    61  55  81 N9        30.11R
NEWARK/LIBERTY CLOUDY    61  56  83 N9        30.11S
BRNX BOT. GARD   N/A     59  54  82 N2        30.12F
TETERBORO      CLOUDY    60  54  80 N5        30.11R
$$

NYZ177-179-078>081-021200-
LONG ISLAND NEW YORK

CITY           SKY/WX    TMP DP  RH WIND       PRES   REMARKS
FARMINGDALE    CLOUDY    60  56  86 N8        30.10S
ISLIP          CLOUDY    60  55  83 N10       30.07R
SHIRLEY        CLOUDY    60  56  86 N8        30.10R
WESTHAMPTON    CLOUDY    60  55  83 N12       30.10R
MONTAUK POINT    N/A     60  58  92 NE9G25    30.08R
$$

NYZ052-065-067-021200-
HUDSON VALLEY

CITY           SKY/WX    TMP DP  RH WIND       PRES   REMARKS
WHITE PLAINS   MOCLDY    58  54  86 N7        30.11R
NEWBURGH       CLOUDY    57  57 100 VRB6      30.15R
MONTGOMERY     CLOUDY    59  56  89 NE6       30.14R
POUGHKEEPSIE   CLOUDY    60  57  89 N6        30.13R
ALBANY         CLOUDY    58  55  90 N3        30.16R
$$

NJZ001-105-106-008-010-013-015-019>022-104-021200-
NEW JERSEY

CITY           SKY/WX    TMP DP  RH WIND       PRES   REMARKS
NEWARK/LIBERTY CLOUDY    61  56  83 N9        30.11S
TETERBORO      CLOUDY    60  54  80 N5        30.11R
CALDWELL       CLOUDY    60  53  77 VRB5      30.13R
MORRISTOWN     CLOUDY    61  57  88 NE5       30.12R
SOMERVILLE     CLOUDY    61  55  81 N5        30.10S
LINDEN         CLOUDY    65  58  77 NE5       30.12S
SUSSEX         CLOUDY    61  56  83 NE5       30.13R
ANDOVER          N/A     58  56  93 CALM      30.14R
TRENTON        CLOUDY    60  56  86 N3        30.11S
MILLVILLE      CLEAR     58  56  93 NW5       30.10R
ATLANTIC CITY  CLEAR     58  57  97 N7        30.08S
WRIGHTSTOWN    CLOUDY    60  59  99 N8        30.08S
TOMS RIVER     CLOUDY    59  57  94 CALM      30.10S
BELMAR         CLOUDY    59  54  82 N6        30.10S
$$

PAZ047>061-062-071-021200-
EASTERN PENNSYLVANIA

CITY           SKY/WX    TMP DP  RH WIND       PRES   REMARKS
PHILADELPHIA   MOCLDY    63  56  78 NE8       30.11R
ALLENTOWN      CLOUDY    60  56  86 NE5       30.13R
SCRANTON       CLOUDY    57  54  89 CALM      30.13R
$$

CTZ002-004>006-009-010-012-RIZ004-006-007-MAZ004-011-015-021200-
SOUTHERN NEW ENGLAND
 IN CT

CITY           SKY/WX    TMP DP  RH WIND       PRES   REMARKS
BRADLEY INTL   CLOUDY    58  54  86 N7        30.14R
HARTFORD       CLOUDY    58  54  86 VRB7      30.13R
DANBURY        CLOUDY    57  53  86 NE7       30.14R
WTRBRY/OXFORD  CLOUDY    55  50  82 NE9       30.14R
BRIDGEPORT     CLOUDY    60  56  86 N14       30.11R
MERIDEN        CLOUDY    58  54  86 N7        30.13R
NEW HAVEN      CLOUDY    61  55  81 N9        30.11R
CHESTER        CLOUDY    57  54  88 N8        30.12R
GROTON         CLOUDY    57  56  96 N9        30.08S
WILLIMANTIC    CLOUDY    57  54  89 N8        30.12R

 IN RI

CITY           SKY/WX    TMP DP  RH WIND       PRES   REMARKS
PROVIDENCE     CLOUDY    57  55  93 NE13      30.11R FOG
BLOCK ISLAND   CLOUDY    59  55  88 NE16G24   30.07R
WESTERLY       LGT RAIN  58  56  93 N8G17     30.09R

 IN MA

CITY           SKY/WX    TMP DP  RH WIND       PRES   REMARKS
BOSTON         RAIN      55  54  96 NE17      30.14S FOG
WORCESTER      CLOUDY    52  52 100 NE10G22   30.14R FOG
WESTFIELD      CLOUDY    57  54  89 N7        30.15R
PROVINCETOWN   CLOUDY    59  55  88 NE17G23   30.10R
NANTUCKET      CLOUDY    60  58  92 NE18G25   30.02R
$$

ANZ330-335-338-340-345-350-353-355-021200-
COASTAL MARINE OBSERVATIONS


STATION/POSITION TIME  SKY/WX   TEMP    WIND        PRES    VSBY  WAVE
                                AIR SEA DIR/SP/G                  HT/PER
                 (UTC)          (F)     (DEG/KT/KT) (MB)    (MI)  (FT/S)
NY HARB ENTRANCE NOT AVBL
4S FIRE IS       1100               67                N/A           5/ 7
20S FIRE ISLAND  1100            62 66   20/ 17/ 19 1017.8          6/ 8
23SW MTP         1100                                 N/A           8/ 6
HUDSON CANYON    1100            65 69   10/ 19/ 23 1016.1          9/ 8
EXECUTION ROCKS  1100            62 68   20/ 14/ 19   N/A
WESTERN LI SOUND 1100            61      40/ 12/ 16   N/A           1/ 4
CENTRAL LI SOUND 1000            60 68   20/ 16/ 19   N/A           2/ 3
EASTERN LI SOUND 1000            60 64   30/ 14/ 19   N/A
ROBBINS REEF     1100            62      40/ 10/ 13 1018.2
$$


>>>>>>>>>>>>>>>>>>>>>>>>>>>> KEY <<<<<<<<<<<<<<<<<<<<<<<<<<<
>                                                          <
>     SKY/WX - SKY CONDITION/PRESENT WEATHER               <
>     TMP    - TEMPERATURE IN FAHRENHEIT                   <
>     DP     - DEWPOINT IN FAHRENHEIT                      <
>     RH     - RELATIVE HUMIDITY IN PERCENT                <
>     WIND   - DIRECTION AND SPEED IN MPH                  <
>     PRES   - MEAN SEA LEVEL PRESSURE IN INCHES OF HG     <
>     WCI    - WIND CHILL INDEX                            <
>     VSB    - VISIBILITY IN MILES                         <
>     HX     - HEAT INDEX                                  <
>     TC     - TEMPERATURE IN CELSIUS                      <
>     VRB    - VARIABLE WIND DIRECTION                     <
>                                                          <
>>>>>>>>>>>>>>>>>>>>>>>>>>>> KEY <<<<<<<<<<<<<<<<<<<<<<<<<<<




USA.gov is the U.S. government's official web portal to all federal, state and local government web resources and services.